map of KJA home
Great Circle Mapper logo
KJA - Airport
Location
City:  Krasnoyarsk, Krasnoyarsk, Russian Federation (Russia)
Name:Yemelyanovo International Airport
Old (Alt.):Emelyanova
ICAO / IATA:UNKL / KJA

Details
Type:Airport (Aerodrome, Airfield)
Use:Public/Civil, International (customs port of entry)
Latitude:5610'23"N (56.172947)
Longitude:9229'36"E (92.493278)
Datum:WGS 1984
Elevation:942 ft (287 m)
Runways:1
Longest:12140 × 197 ft (3700 × 60 m), paved

Time
Time Zone:UTC+7 (DST+8)

Weather
METAR:UNKL 230500Z 09003MPS CAVOK 17/07 Q1016 NOSIG RMK QFE736 11////65
TAF:UNKL 221959Z 2221/2321 VRB02MPS 3000 BR SCT040
TEMPO 2221/2303 0300 FG VV001
BECMG 2303/2304 9999 NSW

Related Locations
Nearby:
Farthest:PNT: 11751 mi / 18912 km
Puerto Natales [Teniente Julio Gallardo], MA, CL

Find:

   beyond  
but within

Other Information
Maps:
NOTAMs:
Links:
Sources:

  
flag of Russian Federation (Russia)   

Sectional Chart

Flight Planning
at skyvector.com

Satellite Image

Google Maps Satellite View

 

Copyright © 2004-2014 Karl L. Swartz. All rights reserved.
The Great Circle Mapper name and logo are trademarks of the Great Circle Mapper.
All other trademarks mentioned herein belong to their respective owners.
Please see credits for attibutions and further copyright information.

  Follow gcmap on Facebook Follow gcmap on Twitter

hCard Microformat

Geo Microformat